Hervey Bay Observation History
Time Wind Speed Temp Pressure Rel. Hum Rain
25/01:00pm ESE 10-15 kts 29.3°c 1010.0 hPa 51% 0.0mm
25/12:30pm E 11-16 kts 29.0°c 1010.3 hPa 51% 0.0mm
25/12:00pm ESE 10-15 kts 28.8°c 1010.7 hPa 49% 0.0mm
25/11:30am ESE 11-14 kts 29.2°c 1010.9 hPa 52% 0.0mm
25/11:00am E 11-14 kts 28.4°c 1011.4 hPa 55% 0.0mm
25/10:30am ESE 10-14 kts 28.5°c 1011.4 hPa 57% 0.0mm
25/10:00am E 9-15 kts 28.1°c 1011.6 hPa 56% 0.0mm
25/09:30am E 9-12 kts 28.0°c 1011.8 hPa 61% 0.0mm
25/09:00am ESE 9-13 kts 27.7°c 1011.8 hPa 60% 0.4mm
25/08:30am ESE 9-14 kts 27.4°c 1011.6 hPa 64% 0.4mm
25/08:00am ESE 10-13 kts 26.3°c 1011.5 hPa 66% 0.2mm
25/07:30am ESE 10-14 kts 26.1°c 1011.5 hPa 71% 0.2mm
25/07:00am ESE 9-13 kts 25.0°c 1011.6 hPa 76% 0.2mm
25/06:30am ESE 7-11 kts 24.3°c 1011.4 hPa 83% 0.2mm
25/06:00am SSW 2-4 kts 21.1°c 1011.5 hPa 96% 0.2mm
25/05:30am SSW 5-6 kts 21.1°c 1011.1 hPa 96% 0.2mm
25/05:00am CALM 0 kts 21.1°c 1011.0 hPa 95% 0.2mm
25/04:30am SW 3-4 kts 21.3°c 1010.8 hPa 95% 0.2mm
25/04:00am SW 3-5 kts 21.5°c 1010.5 hPa 95% 0.2mm
25/03:30am SW 3-4 kts 21.8°c 1010.4 hPa 95% 0.2mm
25/03:00am SSW 2-4 kts 21.9°c 1010.5 hPa 95% 0.2mm
25/02:30am SW 3-5 kts 21.9°c 1010.6 hPa 94% 0.2mm
25/02:00am WSW 3-4 kts 22.0°c 1010.9 hPa 94% 0.2mm
25/01:30am CALM 0 kts 22.1°c 1011.1 hPa 94% 0.2mm
25/01:00am SSW 3-4 kts 22.0°c 1011.4 hPa 94% 0.2mm
25/12:30am SW 3-5 kts 22.1°c 1011.5 hPa 95% 0.2mm
25/12:00am SSW 5-6 kts 22.2°c 1011.7 hPa 94% 0.2mm
Time Wind Speed Temp Pressure Rel. Hum Rain
24/11:30pm SSW 5-6 kts 22.5°c 1012.2 hPa 93% 0.2mm
24/11:00pm SSW 3-4 kts 23.0°c 1012.6 hPa 92% 0.2mm
24/10:30pm S 4-5 kts 22.8°c 1012.8 hPa 90% 0.2mm
24/10:26pm SSE 4-5 kts 23.0°c 1012.8 hPa 90% 0.2mm
24/10:12pm SSE 5-7 kts 23.2°c 1013.0 hPa 87% 0.2mm
24/10:00pm S 4-5 kts 23.7°c 1013.1 hPa 84% 0.0mm
24/09:30pm SSE 3-5 kts 24.5°c 1012.9 hPa 79% 0.0mm
24/09:00pm SE 4-7 kts 24.4°c 1012.9 hPa 80% 0.0mm
24/08:30pm SE 5-8 kts 24.1°c 1012.7 hPa 83% 0.0mm
24/08:00pm ESE 11-16 kts 24.0°c 1012.4 hPa 80% 0.0mm
24/07:30pm ESE 11-14 kts 24.4°c 1012.1 hPa 80% 0.0mm
24/07:00pm ESE 11-15 kts 24.4°c 1011.9 hPa 79% 0.0mm
24/06:30pm SE 9-14 kts 25.3°c 1011.7 hPa 78% 0.0mm
24/06:00pm SE 8-13 kts 25.5°c 1011.7 hPa 77% 0.0mm
24/05:30pm SE 9-13 kts 25.8°c 1011.2 hPa 75% 0.0mm
24/05:00pm SE 11-16 kts 26.7°c 1011.3 hPa 72% 0.0mm
24/04:30pm SE 9-14 kts 27.5°c 1011.0 hPa 67% 0.0mm
24/04:00pm SE 11-16 kts 27.1°c 1010.9 hPa 68% 0.0mm
24/03:30pm ESE 12-18 kts 27.4°c 1011.1 hPa 61% 0.0mm
24/03:00pm SE 10-15 kts 28.7°c 1011.2 hPa 58% 0.0mm
24/02:30pm ESE 13-17 kts 27.7°c 1011.6 hPa 61% 0.0mm
24/02:00pm SE 10-15 kts 28.3°c 1011.8 hPa 60% 0.0mm
24/01:30pm ESE 14-23 kts 27.6°c 1012.0 hPa 61% 0.0mm
24/01:00pm ESE 13-22 kts 28.1°c 1012.1 hPa 60% 0.0mm
24/12:30pm ESE 9-16 kts 29.4°c 1012.1 hPa 53% 0.0mm
24/12:00pm SE 11-16 kts 29.2°c 1012.5 hPa 50% 0.0mm
24/11:30am ESE 11-16 kts 29.3°c 1012.9 hPa 44% 0.0mm
24/11:00am SE 8-15 kts 28.7°c 1013.4 hPa 40% 0.0mm
24/10:30am SE 9-13 kts 28.3°c 1013.7 hPa 46% 0.0mm
24/10:00am SE 9-14 kts 28.4°c 1013.9 hPa 51% 0.0mm
24/09:30am ESE 12-16 kts 27.7°c 1014.0 hPa 54% 0.0mm
24/09:00am SE 11-16 kts 27.3°c 1014.1 hPa 56% 0.0mm
24/08:30am SE 11-16 kts 27.0°c 1013.8 hPa 58% 0.0mm
24/08:00am ESE 11-17 kts 26.4°c 1013.7 hPa 58% 0.0mm
24/07:30am SE 9-13 kts 26.3°c 1013.5 hPa 61% 0.0mm
24/07:00am SE 7-10 kts 25.6°c 1013.5 hPa 65% 0.0mm
24/06:30am SE 5-8 kts 23.8°c 1013.4 hPa 71% 0.0mm
24/06:00am SSE 4-7 kts 23.4°c 1013.1 hPa 73% 0.0mm
24/05:30am SE 6-8 kts 23.4°c 1012.7 hPa 73% 0.0mm
24/05:00am SE 7-9 kts 23.8°c 1012.4 hPa 70% 0.0mm
24/04:30am ESE 7-12 kts 24.0°c 1012.2 hPa 72% 0.0mm
24/04:00am SE 6-8 kts 23.8°c 1012.1 hPa 73% 0.0mm
24/03:30am ESE 8-11 kts 24.2°c 1012.1 hPa 72% 0.0mm
24/03:00am E 8-11 kts 24.2°c 1012.3 hPa 68% 0.0mm
24/02:30am ESE 10-15 kts 23.5°c 1012.6 hPa 74% 0.0mm
24/02:00am ESE 11-17 kts 23.0°c 1013.0 hPa 79% 0.0mm
24/01:30am ESE 7-10 kts 23.1°c 1013.2 hPa 80% 0.0mm
24/01:00am SE 5-7 kts 22.8°c 1013.4 hPa 81% 0.0mm
24/12:30am SE 6-9 kts 22.9°c 1013.9 hPa 79% 0.0mm
24/12:00am SE 5-8 kts 23.2°c 1014.0 hPa 77% 0.0mm
Time Wind Speed Temp Pressure Rel. Hum Rain
23/11:30pm ESE 5-9 kts 23.0°c 1014.4 hPa 79% 0.0mm
23/11:00pm ESE 7-12 kts 23.3°c 1014.7 hPa 81% 0.0mm
23/10:30pm E 9-11 kts 23.1°c 1014.8 hPa 82% 0.0mm
23/10:00pm E 8-12 kts 24.1°c 1014.8 hPa 76% 0.0mm
23/09:30pm ESE 8-12 kts 24.5°c 1014.8 hPa 67% 0.0mm
23/09:00pm SE 6-9 kts 24.2°c 1014.6 hPa 65% 0.0mm
23/08:30pm SE 6-8 kts 23.9°c 1014.6 hPa 67% 0.0mm
23/08:00pm SE 5-8 kts 23.7°c 1014.5 hPa 70% 0.0mm
23/07:30pm SE 6-10 kts 23.6°c 1014.4 hPa 72% 0.0mm
23/07:00pm SSE 5-9 kts 23.6°c 1014.1 hPa 75% 0.0mm
23/06:30pm SSE 6-9 kts 23.8°c 1013.8 hPa 73% 0.0mm
23/06:00pm S 7-10 kts 24.1°c 1013.5 hPa 69% 0.0mm
23/05:30pm SSE 8-13 kts 24.3°c 1013.4 hPa 67% 0.0mm
23/05:00pm SSE 11-16 kts 24.2°c 1013.2 hPa 70% 0.0mm
23/04:30pm SE 10-15 kts 25.8°c 1012.9 hPa 63% 0.0mm
23/04:00pm ESE 10-16 kts 26.2°c 1012.7 hPa 54% 0.0mm
23/03:30pm SE 10-14 kts 26.3°c 1012.7 hPa 54% 0.0mm
23/03:00pm SE 9-12 kts 26.6°c 1012.6 hPa 57% 0.0mm
23/02:30pm ESE 13-21 kts 25.9°c 1012.8 hPa 63% 0.0mm
23/02:00pm SE 11-15 kts 27.9°c 1012.7 hPa 46% 0.0mm
23/01:30pm SE 10-14 kts 27.6°c 1012.8 hPa 49% 0.0mm
23/01:00pm ESE 13-18 kts 27.3°c 1013.0 hPa 54% 0.0mm
23/12:30pm ESE 11-17 kts 27.6°c 1013.1 hPa 49% 0.0mm
23/12:00pm SE 11-15 kts 27.1°c 1013.4 hPa 47% 0.0mm
23/11:30am ESE 11-14 kts 26.9°c 1013.6 hPa 48% 0.0mm
23/11:00am ESE 9-13 kts 26.9°c 1013.9 hPa 51% 0.0mm
23/10:30am ESE 9-13 kts 27.0°c 1014.0 hPa 52% 0.0mm
23/10:00am ESE 11-14 kts 27.0°c 1014.1 hPa 53% 0.0mm
23/09:30am SE 9-16 kts 26.8°c 1014.2 hPa 57% 0.0mm
23/09:00am SE 8-12 kts 26.3°c 1014.1 hPa 61% 0.0mm
23/08:30am SE 5-9 kts 26.2°c 1014.0 hPa 63% 0.0mm
23/08:00am SW 5-7 kts 23.2°c 1013.9 hPa 80% 0.0mm
23/07:30am SSW 6-7 kts 21.9°c 1013.8 hPa 84% 0.0mm
23/07:00am SSW 6-8 kts 21.0°c 1013.6 hPa 86% 0.0mm
23/06:30am SSW 6-9 kts 19.6°c 1013.5 hPa 89% 0.0mm
23/06:00am SW 5-8 kts 19.1°c 1012.9 hPa 92% 0.0mm
23/05:30am SW 6-7 kts 18.6°c 1012.6 hPa 93% 0.0mm
23/05:00am WSW 4-5 kts 18.6°c 1012.4 hPa 93% 0.0mm
23/04:30am SSW 5-6 kts 18.5°c 1012.1 hPa 94% 0.0mm
23/04:00am SSW 5-6 kts 18.5°c 1011.9 hPa 94% 0.0mm
23/03:30am SSW 3-6 kts 18.4°c 1011.8 hPa 94% 0.0mm
23/03:00am SW 4-5 kts 18.5°c 1012.0 hPa 95% 0.0mm
23/02:30am SSW 1-3 kts 18.1°c 1012.0 hPa 94% 0.0mm
23/02:00am SW 1-4 kts 18.2°c 1011.9 hPa 93% 0.0mm
23/01:30am SW 2-5 kts 18.2°c 1012.1 hPa 93% 0.0mm
23/01:00am SSW 1-3 kts 18.6°c 1012.4 hPa 93% 0.0mm
23/12:30am SSW 2-5 kts 18.8°c 1012.8 hPa 92% 0.0mm
23/12:00am CALM 0 kts 18.9°c 1013.0 hPa 89% 0.0mm